Date String (YYYY-MM-DD hh:mm:ss) UTC,Instrument flags,Ambient pressure (hPa),Sample flow (lpm),Bypass flow (lpm),Sample temperature (°C),Ambient temperature (°C),ASC tube jacket temperature (°C),LED temperature (°C),Box temperature (°C),Sample RH (%),Span deviation,Mass concentration (μg/m³),Mass concentration (μg/m³),Mass concentration (μg/m³)
DateTimeUTC,F1_M11,P_M11,Q1_M11,Q2_M11,T1_M11,T2_M11,T3_M11,T4_M11,T5_M11,U1_M11,ZSPAN_M11,X0_M11,X2_M11,X1_M11
2022-09-01 04:00:00,,0830.6,5.00,0.00,29.9,26.2,00.0,38.6,31.6,19.2,0000.0,0010.23,0004.79,0004.12
2022-09-01 04:01:00,,0830.6,4.99,0.00,29.8,26.4,00.0,38.6,31.5,19.3,0000.0,0010.13,0004.78,0004.13
2022-09-01 04:02:00,,0830.6,5.00,0.00,29.7,26.8,00.0,38.6,31.4,19.4,0000.0,0010.46,0004.78,0004.13
2022-09-01 04:03:00,,0830.6,4.99,0.00,29.7,27.2,00.0,38.5,31.4,19.4,0000.0,0010.47,0004.74,0004.12
2022-09-01 04:04:00,,0830.6,5.01,0.00,29.7,27.5,00.0,38.5,31.4,19.3,0000.0,0010.46,0004.75,0004.11
2022-09-01 04:05:00,,0830.6,5.00,0.00,29.7,27.8,00.0,38.5,31.4,19.2,0000.0,0010.37,0004.77,0004.11
2022-09-01 04:06:00,,0830.5,5.01,0.00,29.7,28.0,00.0,38.5,31.5,19.3,0000.0,0010.27,0004.77,0004.10
2022-09-01 04:07:00,,0830.6,5.00,0.00,29.7,28.2,00.0,38.5,31.5,19.2,0000.0,0010.52,0004.81,0004.10
2022-09-01 04:08:00,,0830.6,5.00,0.00,29.7,28.3,00.0,38.5,31.5,19.3,0000.0,0010.73,0004.85,0004.10
2022-09-01 04:09:00,,0830.6,5.01,0.00,29.7,28.4,00.0,38.5,31.5,19.3,0000.0,0010.89,0004.87,0004.10
2022-09-01 04:10:00,,0830.5,4.99,0.00,29.7,28.5,00.0,38.5,31.6,19.3,0000.0,0011.46,0004.87,0004.10
2022-09-01 04:11:00,,0830.5,5.01,0.00,29.8,28.6,00.0,38.5,31.6,19.2,0000.0,0011.27,0004.90,0004.09
2022-09-01 04:12:00,,0830.6,5.01,0.00,29.8,28.6,00.0,38.5,31.7,19.3,0000.0,0011.28,0004.95,0004.10
2022-09-01 04:13:00,,0830.6,4.98,0.00,29.8,28.7,00.0,38.5,31.7,19.3,0000.0,0010.89,0004.96,0004.11
2022-09-01 04:14:00,,0830.6,5.01,0.00,29.8,28.8,00.0,38.6,31.7,19.3,0000.0,0010.32,0005.02,0004.11
2022-09-01 04:15:00,,0830.5,5.00,0.00,29.9,28.8,00.0,38.6,31.7,19.2,0000.0,0010.48,0005.01,0004.12
2022-09-01 04:16:00,,0830.6,4.98,0.00,29.9,28.9,00.0,38.6,31.8,19.0,0000.0,0010.52,0005.02,0004.13
2022-09-01 04:17:00,,0830.6,5.00,0.00,29.9,28.9,00.0,38.6,31.8,19.1,0000.0,0010.66,0005.05,0004.14
2022-09-01 04:18:00,,0830.6,5.01,0.00,30.0,28.9,00.0,38.6,31.9,18.9,0000.0,0010.54,0005.05,0004.15
2022-09-01 04:19:00,,0830.6,4.99,0.00,30.0,29.0,00.0,38.7,31.9,18.9,0000.0,0010.71,0005.03,0004.16
2022-09-01 04:20:00,,0830.6,5.01,0.00,30.0,29.0,00.0,38.7,31.9,19.0,0000.0,0011.05,0005.04,0004.18
2022-09-01 04:21:00,,0830.6,5.01,0.00,30.1,29.1,00.0,38.7,32.0,18.8,0000.0,0010.56,0005.03,0004.18
2022-09-01 04:22:00,,0830.6,4.99,0.00,30.1,29.1,00.0,38.7,32.0,18.5,0000.0,0010.21,0005.00,0004.19
2022-09-01 04:23:00,,0830.6,4.99,0.00,30.1,28.9,00.0,38.8,32.0,18.5,0000.0,0010.26,0005.01,0004.20
2022-09-01 04:24:00,,0830.6,5.00,0.00,30.1,27.6,00.0,38.7,31.9,18.5,0000.0,0010.49,0005.03,0004.22
2022-09-01 04:25:00,,0830.6,5.00,0.00,30.0,27.0,00.0,38.7,31.8,18.5,0000.0,0010.62,0005.08,0004.24
2022-09-01 04:26:00,,0830.6,5.01,0.00,30.0,27.1,00.0,38.7,31.7,18.5,0000.0,0010.73,0005.11,0004.25
2022-09-01 04:27:00,,0830.6,5.00,0.00,29.9,27.4,00.0,38.6,31.6,18.6,0000.0,0010.99,0005.11,0004.26
2022-09-01 04:28:00,,0830.6,5.00,0.00,29.9,27.7,00.0,38.6,31.6,18.6,0000.0,0011.50,0005.09,0004.26
2022-09-01 04:29:00,,0830.5,5.00,0.00,29.9,27.9,00.0,38.6,31.6,18.6,0000.0,0012.63,0005.11,0004.26
2022-09-01 04:30:00,,0830.5,5.01,0.00,29.9,28.1,00.0,38.6,31.7,18.6,0000.0,0013.94,0005.12,0004.27
2022-09-01 04:31:00,,0830.5,5.00,0.00,29.9,28.3,00.0,38.6,31.7,18.6,0000.0,0014.05,0005.15,0004.28
2022-09-01 04:32:00,,0830.5,5.00,0.00,29.9,28.5,00.0,38.6,31.7,18.5,0000.0,0014.42,0005.19,0004.29
2022-09-01 04:33:00,,0830.5,4.99,0.00,29.9,28.6,00.0,38.6,31.7,18.5,0000.0,0014.57,0005.26,0004.31
2022-09-01 04:34:00,,0830.6,4.99,0.00,29.9,28.7,00.0,38.7,31.7,18.5,0000.0,0014.56,0005.28,0004.31
2022-09-01 04:35:00,,0830.5,5.01,0.00,29.9,28.7,00.0,38.7,31.8,18.4,0000.0,0014.41,0005.28,0004.31
2022-09-01 04:36:00,,0830.5,5.01,0.00,30.0,28.8,00.0,38.7,31.8,18.4,0000.0,0014.75,0005.24,0004.32
2022-09-01 04:37:00,,0830.5,4.98,0.00,30.0,28.9,00.0,38.7,31.9,18.3,0000.0,0014.72,0005.21,0004.32
2022-09-01 04:38:00,,0830.5,5.01,0.00,30.0,28.9,00.0,38.7,31.9,18.2,0000.0,0014.35,0005.24,0004.34
2022-09-01 04:39:00,,0830.5,5.01,0.00,30.0,29.0,00.0,38.7,31.9,18.3,0000.0,0014.07,0005.25,0004.37
2022-09-01 04:40:00,,0830.5,4.99,0.00,30.1,29.0,00.0,38.7,32.0,18.4,0000.0,0012.97,0005.27,0004.37
2022-09-01 04:41:00,,0830.5,5.01,0.00,30.1,29.0,00.0,38.8,32.0,18.3,0000.0,0011.50,0005.32,0004.38
2022-09-01 04:42:00,,0830.5,4.99,0.00,30.1,29.1,00.0,38.8,32.0,18.3,0000.0,0011.10,0005.32,0004.40
2022-09-01 04:43:00,,0830.5,5.00,0.00,30.1,29.1,00.0,38.8,32.0,18.2,0000.0,0010.79,0005.32,0004.40
2022-09-01 04:44:00,,0830.5,5.00,0.00,30.1,27.9,00.0,38.8,32.0,18.3,0000.0,0011.15,0005.32,0004.40
2022-09-01 04:45:00,,0830.5,5.00,0.00,30.1,27.1,00.0,38.8,31.9,18.3,0000.0,0011.74,0005.32,0004.41
2022-09-01 04:46:00,,0830.5,5.00,0.00,30.0,27.1,00.0,38.7,31.8,18.5,0000.0,0011.81,0005.31,0004.42
2022-09-01 04:47:00,,0830.5,5.00,0.00,30.0,27.4,00.0,38.7,31.7,18.6,0000.0,0011.70,0005.32,0004.43
2022-09-01 04:48:00,,0830.5,5.00,0.00,29.9,27.6,00.0,38.7,31.6,18.6,0000.0,0012.43,0005.38,0004.44
2022-09-01 04:49:00,,0830.5,4.99,0.00,29.9,27.9,00.0,38.7,31.6,18.6,0000.0,0012.62,0005.40,0004.44
2022-09-01 04:50:00,,0830.5,5.00,0.00,29.9,28.1,00.0,38.7,31.7,18.7,0000.0,0012.62,0005.39,0004.43
2022-09-01 04:51:00,,0830.5,5.00,0.00,29.9,28.3,00.0,38.7,31.7,18.8,0000.0,0012.77,0005.35,0004.43
2022-09-01 04:52:00,,0830.5,5.01,0.00,29.9,28.5,00.0,38.7,31.7,18.7,0000.0,0012.73,0005.31,0004.42
2022-09-01 04:53:00,,0830.5,5.01,0.00,29.9,28.5,00.0,38.7,31.8,18.6,0000.0,0012.78,0005.31,0004.42
2022-09-01 04:54:00,,0830.5,4.98,0.00,29.9,28.6,00.0,38.7,31.8,18.7,0000.0,0013.20,0005.31,0004.42
2022-09-01 04:55:00,,0830.6,5.00,0.00,30.0,28.7,00.0,38.7,31.7,18.6,0000.0,0012.83,0005.27,0004.41
2022-09-01 04:56:00,,0830.5,5.00,0.00,30.0,28.7,00.0,38.7,31.8,18.6,0000.0,0012.08,0005.21,0004.40
2022-09-01 04:57:00,,0830.5,4.99,0.00,30.0,28.8,00.0,38.7,31.8,18.4,0000.0,0012.05,0005.24,0004.39
2022-09-01 04:58:00,,0830.6,5.01,0.00,30.0,28.9,00.0,38.7,31.9,18.4,0000.0,0011.46,0005.21,0004.39
2022-09-01 04:59:00,,0830.5,5.01,0.00,30.0,28.9,00.0,38.7,31.9,18.5,0000.0,0011.08,0005.19,0004.38
